Total_Precipitation_Accumulation
0.00 0.00 0.00 0.00 0.01 0.02 0.09 0.16 0.11 0.03 0.07 0.04 0.02 0.02 0.16 0.71 0.78 0.47 0.26 0.10 0.07 0.09 0.13 0.24 0.25 0.48 0.47 0.48 0.52 0.36 0.21 0.12 0.14 0.04 0.00 0.00 0.00 0.00 0.00 0.01 0.00 0.00 0.00 0.00
0.00 0.00 0.00 0.00 0.02 0.08 0.07 0.16 0.09 0.04 0.11 0.09 0.05 0.08 0.09 0.45 0.76 0.58 0.39 0.10 0.06 0.06 0.07 0.14 0.21 0.31 0.48 0.31 0.61 0.71 0.69 0.35 0.29 0.29 0.14 0.10 0.04 0.02 0.00 0.02 0.01 0.03 0.04 0.01
0.00 0.00 0.00 0.00 0.07 0.07 0.07 0.14 0.12 0.05 0.13 0.20 0.11 0.13 0.12 0.24 0.54 0.59 0.40 0.15 0.06 0.02 0.03 0.09 0.14 0.25 0.37 0.40 0.42 1.00 1.49 0.91 0.46 0.51 0.59 0.48 0.32 0.15 0.17 0.09 0.07 0.13 0.09 0.05
0.00 0.00 0.00 0.03 0.08 0.04 0.08 0.11 0.09 0.08 0.16 0.36 0.21 0.13 0.10 0.11 0.25 0.34 0.43 0.22 0.07 0.01 0.01 0.02 0.09 0.14 0.19 0.25 0.47 0.78 1.25 2.05 0.86 0.55 0.53 0.50 0.46 0.33 0.25 0.21 0.25 0.27 0.16 0.05
0.00 0.00 0.00 0.01 0.03 0.07 0.16 0.19 0.07 0.04 0.05 0.19 0.16 0.03 0.08 0.09 0.13 0.15 0.30 0.35 0.08 0.01 0.00 0.01 0.04 0.08 0.14 0.18 0.32 0.52 0.82 1.08 1.94 1.03 0.67 0.48 0.33 0.27 0.29 0.24 0.23 0.14 0.11 0.12
0.00 0.00 0.00 0.08 0.05 0.17 0.12 0.02 0.04 0.01 0.03 0.14 0.11 0.01 0.04 0.05 0.05 0.05 0.12 0.45 0.09 0.00 0.00 0.00 0.00 0.01 0.05 0.09 0.21 0.32 0.47 0.55 1.25 1.86 1.26 1.02 0.52 0.37 0.38 0.23 0.22 0.29 0.40 0.54
0.09 0.15 0.16 0.16 0.12 0.16 0.16 0.01 0.03 0.08 0.06 0.08 0.01 0.00 0.00 0.00 0.01 0.02 0.04 0.31 0.09 0.00 0.00 0.00 0.00 0.01 0.04 0.08 0.11 0.17 0.26 0.29 0.59 0.83 1.04 1.51 1.09 0.42 0.41 0.46 0.50 0.36 0.44 0.44
0.16 0.12 0.05 0.03 0.08 0.24 0.19 0.02 0.02 0.03 0.01 0.01 0.00 0.00 0.00 0.00 0.00 0.00 0.00 0.09 0.11 0.00 0.00 0.00 0.00 0.00 0.01 0.03 0.08 0.10 0.13 0.18 0.22 0.44 0.70 0.78 1.14 1.21 0.73 0.53 0.34 0.22 0.19 0.19
0.01 0.02 0.01 0.00 0.10 0.22 0.13 0.01 0.01 0.00 0.00 0.00 0.00 0.00 0.00 0.00 0.00 0.00 0.00 0.05 0.08 0.01 0.00 0.00 0.00 0.00 0.00 0.00 0.02 0.02 0.03 0.06 0.10 0.12 0.34 0.20 0.14 0.26 0.26 0.24 0.16 0.07 0.06 0.04
0.00 0.00 0.00 0.00 0.06 0.10 0.06 0.01 0.01 0.00 0.00 0.00 0.00 0.00 0.00 0.00 0.00 0.00 0.00 0.02 0.09 0.04 0.01 0.00 0.00 0.00 0.00 0.00 0.00 0.01 0.02 0.02 0.01 0.03 0.06 0.08 0.10 0.13 0.10 0.08 0.07 0.02 0.00 0.00
0.00 0.00 0.00 0.00 0.00 0.01 0.05 0.03 0.01 0.00 0.00 0.00 0.00 0.01 0.00 0.00 0.00 0.00 0.00 0.00 0.03 0.08 0.01 0.00 0.00 0.00 0.00 0.00 0.01 0.02 0.02 0.01 0.00 0.00 0.02 0.02 0.03 0.04 0.05 0.02 0.01 0.00 0.00 0.00
0.00 0.00 0.00 0.00 0.00 0.00 0.00 0.00 0.00 0.00 0.00 0.00 0.00 0.01 0.00 0.00 0.00 0.00 0.00 0.00 0.00 0.04 0.01 0.00 0.00 0.00 0.00 0.00 0.00 0.03 0.04 0.01 0.00 0.00 0.01 0.02 0.01 0.02 0.01 0.01 0.00 0.00 0.00 0.00
0.00 0.00 0.00 0.00 0.00 0.00 0.00 0.00 0.00 0.00 0.00 0.00 0.00 0.00 0.00 0.00 0.00 0.00 0.00 0.00 0.00 0.00 0.00 0.00 0.00 0.00 0.00 0.00 0.00 0.00 0.00 0.00 0.00 0.01 0.01 0.01 0.01 0.01 0.00 0.00 0.00 0.00 0.00 0.00
0.00 0.00 0.00 0.01 0.01 0.00 0.00 0.00 0.00 0.00 0.00 0.00 0.00 0.00 0.00 0.00 0.00 0.00 0.00 0.00 0.00 0.00 0.00 0.00 0.00 0.00 0.00 0.00 0.00 0.00 0.00 0.00 0.00 0.00 0.01 0.01 0.01 0.01 0.00 0.00 0.00 0.00 0.00 0.00
0.00 0.00 0.00 0.00 0.00 0.00 0.00 0.00 0.00 0.00 0.00 0.00 0.00 0.00 0.00 0.00 0.00 0.00 0.00 0.00 0.00 0.00 0.00 0.00 0.00 0.00 0.00 0.00 0.00 0.00 0.00 0.00 0.00 0.00 0.00 0.00 0.00 0.00 0.00 0.00 0.00 0.00 0.00 0.00
0.00 0.00 0.00 0.00 0.00 0.00 0.00 0.00 0.00 0.00 0.00 0.00 0.00 0.00 0.00 0.00 0.00 0.00 0.00 0.00 0.00 0.00 0.00 0.00 0.00 0.00 0.00 0.00 0.00 0.00 0.00 0.00 0.00 0.00 0.00 0.00 0.00 0.00 0.00 0.00 0.00 0.00 0.00 0.00
0.00 0.00 0.00 0.00 0.00 0.00 0.00 0.00 0.00 0.00 0.00 0.00 0.00 0.00 0.00 0.00 0.00 0.00 0.00 0.00 0.00 0.00 0.00 0.00 0.00 0.00 0.00 0.00 0.00 0.00 0.00 0.00 0.00 0.00 0.00 0.00 0.00 0.00 0.00 0.00 0.00 0.00 0.00 0.00
0.00 0.00 0.00 0.00 0.00 0.00 0.00 0.00 0.00 0.00 0.00 0.00 0.00 0.00 0.00 0.00 0.00 0.00 0.00 0.00 0.00 0.00 0.00 0.00 0.00 0.00 0.00 0.00 0.00 0.00 0.00 0.00 0.00 0.00 0.00 0.00 0.00 0.00 0.00 0.00 0.00 0.00 0.00 0.00
0.00 0.00 0.00 0.00 0.00 0.00 0.00 0.00 0.00 0.00 0.00 0.00 0.00 0.00 0.00 0.00 0.00 0.00 0.00 0.00 0.00 0.00 0.00 0.00 0.00 0.00 0.00 0.00 0.00 0.00 0.00 0.00 0.00 0.00 0.00 0.00 0.00 0.00 0.00 0.00 0.00 0.00 0.00 0.00
0.00 0.00 0.00 0.00 0.00 0.00 0.00 0.00 0.00 0.00 0.00 0.00 0.00 0.00 0.00 0.00 0.00 0.00 0.00 0.00 0.00 0.00 0.00 0.00 0.00 0.00 0.00 0.00 0.00 0.00 0.00 0.00 0.00 0.00 0.00 0.00 0.00 0.00 0.00 0.00 0.00 0.00 0.00 0.00
0.00 0.00 0.00 0.00 0.00 0.00 0.00 0.00 0.00 0.00 0.00 0.00 0.00 0.00 0.00 0.00 0.00 0.00 0.00 0.00 0.00 0.00 0.00 0.00 0.00 0.00 0.00 0.00 0.00 0.00 0.00 0.00 0.00 0.00 0.00 0.00 0.00 0.00 0.00 0.00 0.00 0.00 0.00 0.00
0.00 0.00 0.00 0.00 0.00 0.00 0.00 0.00 0.00 0.00 0.00 0.00 0.00 0.00 0.00 0.00 0.00 0.00 0.00 0.00 0.00 0.00 0.00 0.00 0.00 0.00 0.00 0.00 0.00 0.00 0.00 0.00 0.00 0.00 0.00 0.00 0.00 0.00 0.00 0.00 0.00 0.00 0.00 0.00
0.00 0.00 0.00 0.00 0.00 0.00 0.00 0.00 0.00 0.00 0.00 0.00 0.00 0.00 0.00 0.00 0.00 0.00 0.00 0.00 0.00 0.00 0.00 0.00 0.00 0.00 0.00 0.00 0.00 0.00 0.00 0.00 0.00 0.00 0.00 0.00 0.00 0.00 0.00 0.00 0.00 0.00 0.00 0.00
0.00 0.00 0.00 0.00 0.00 0.00 0.00 0.00 0.00 0.00 0.00 0.00 0.00 0.00 0.00 0.00 0.00 0.00 0.00 0.00 0.00 0.00 0.00 0.00 0.00 0.00 0.00 0.00 0.00 0.00 0.00 0.00 0.00 0.00 0.00 0.00 0.00 0.00 0.00 0.00 0.00 0.00 0.00 0.00
0.00 0.00 0.00 0.00 0.00 0.00 0.00 0.00 0.00 0.00 0.00 0.00 0.00 0.00 0.00 0.00 0.00 0.00 0.00 0.00 0.00 0.00 0.00 0.00 0.00 0.00 0.00 0.00 0.00 0.00 0.00 0.01 0.01 0.01 0.02 0.03 0.02 0.01 0.00 0.00 0.00 0.00 0.00 0.00
0.00 0.00 0.00 0.00 0.00 0.00 0.00 0.00 0.00 0.00 0.00 0.00 0.00 0.00 0.00 0.00 0.00 0.00 0.00 0.00 0.00 0.00 0.00 0.00 0.00 0.00 0.00 0.00 0.00 0.00 0.00 0.00 0.00 0.00 0.00 0.02 0.03 0.02 0.03 0.01 0.00 0.00 0.00 0.00